This demonstration page uses our WeatherBlox Daily Observations layout. Learn more.

Left ArrowRight Arrow

Hourly Observations for April 28, 2019

Temp ( °F °C ) Dew Point ( °F °C ) Humidity (%) Winds ( mph kmh ) Pressure ( in mb ) Visibility ( mi km ) Precip ( " mm )
12:53 am 00:53 Clear 68 20 54 12.2 61 61 SE 9 15 29.68 1005 10 16 0.00 0.00
1:53 am 01:53 Clear 67 19.4 52 11.1 59 59 ESE 9 15 29.68 1005 10 16 0.00 0.00
2:53 am 02:53 Clear 68 20 51 10.6 55 55 SE 13 20 29.66 1004 10 16 0.00 0.00
3:53 am 03:53 Clear 65 18.3 50 10 59 59 SE 10 17 29.65 1004 10 16 0.00 0.00
4:53 am 04:53 Clear 64 17.8 49 9.4 58 58 ESE 9 15 29.66 1005 10 16 0.00 0.00
5:53 am 05:53 Clear 62 16.7 49 9.4 62 62 SE 7 11 29.67 1005 10 16 0.00 0.00
6:53 am 06:53 Clear 60 15.6 49 9.4 67 67 SE 3 6 29.69 1005 10 16 0.00 0.00
7:53 am 07:53 Sunny 60 15.6 50 10 70 70 N 5 7 29.72 1007 10 16 0.00 0.00
8:53 am 08:53 Sunny 66 18.9 51 10.6 59 59 E 7 11 29.74 1007 10 16 0.00 0.00
9:53 am 09:53 Sunny 70 21.1 52 11.1 53 53 S 3 6 29.75 1008 10 16 0.00 0.00
10:53 am 10:53 Sunny 78 25.6 52 11.1 40 40 ESE 3 6 29.75 1007 10 16 0.00 0.00
11:53 am 11:53 Sunny 83 28.3 48 8.9 30 30 VRB 3 6 29.72 1007 10 16 0.00 0.00
12:53 pm 12:53 Sunny 88 31.1 34 1.1 15 15 NW 3 6 29.70 1006 10 16 0.00 0.00
1:53 pm 13:53 Sunny 91 32.8 35 1.7 14 14 E 6 9 29.67 1005 10 16 0.00 0.00
2:53 pm 14:53 Sunny 93 33.9 32 0 11 11 SSE 3 6 29.63 1003 10 16 0.00 0.00
3:53 pm 15:53 Sunny 96 35.6 34 1.1 11 11 N 13 20 29.60 1003 10 16 0.00 0.00
4:53 pm 16:53 Sunny 95 35 37 2.8 13 13 S 10 17 29.58 1002 10 16 0.00 0.00
5:53 pm 17:53 Sunny 93 33.9 40 4.4 16 16 SSE 14 22 29.57 1001 10 16 0.00 0.00
6:53 pm 18:53 Sunny 90 32.2 50 10 25 25 SE 18 30 29.57 1001 10 16 0.00 0.00
7:53 pm 19:53 Sunny 84 28.9 56 13.3 38 38 SE 16 26 29.59 1002 10 16 0.00 0.00
8:53 pm 20:53 Clear 80 26.7 58 14.4 47 47 SE 14 22 29.61 1003 10 16 0.00 0.00
9:53 pm 21:53 Clear 77 25 59 15 54 54 SE 17 28 29.64 1004 10 16 0.00 0.00
10:53 pm 22:53 Clear 75 23.9 61 16.1 62 62 SE 15 24 29.66 1005 10 16 0.00 0.00
11:53 pm 23:53 Clear 74 23.3 61 16.1 64 64 SE 16 26 29.66 1005 10 16 0.00 0.00

Powered by AerisWeather